Location: Unspecified
(33.6682°S, 0.0000°E)
Time: 22:45:01
(UTC+00:00)

S-56A Canister/Altair - Pass Details

Date: 01 July 2019
Orbit: 632 x 2500 km, 38.9° (Epoch: 18 July)

Event Time Altitude Azimuth Distance (km) Brightness Sun altitude
Exits shadow 06:05:53 15° 250° (WSW) 3,311 10.1 -12.2°
Maximum altitude 06:14:37 82° 335° (NNW) 1,949 9.5 -10.5°
Drops below altitude 10° 06:28:41 10° 60° (ENE) 5,016 13.4 -7.7°
Sets 06:32:53 0° 60° (ENE) 6,124 14.6 -6.9°
